Location: Key Biscayne
(25.6930°N, 80.1630°W)
Time: 01:17:34
(UTC-04:00)

CZ-2D R/B - Visible Passes

Search period start: 20 April 2018 00:00
Search period end: 30 April 2018 00:00
Orbit: 522 x 540 km, 97.5° (Epoch: 19 April)

Date Brightness Start Highest point End Pass type
(mag) Time Alt. Az. Time Alt. Az. Time Alt. Az.
20 Apr 4.6 20:10:03 10° SE 20:12:57 21° ENE 20:15:52 10° NNE visible
20 Apr 6.1 21:44:55 10° SW 21:47:12 15° W 21:49:28 10° WNW visible
21 Apr 5.6 21:34:18 10° SSW 21:37:12 21° W 21:40:07 10° NW visible
22 Apr 5.1 21:23:55 10° SSW 21:27:14 28° W 21:30:33 10° NW visible
23 Apr 4.5 21:13:41 10° S 21:17:15 40° W 21:20:51 10° NNW visible
24 Apr 3.8 21:03:35 10° S 21:07:17 57° W 21:11:03 10° NNW visible
25 Apr 3.2 20:53:34 10° S 20:57:21 83° WSW 21:01:09 10° NNW visible
26 Apr 3.1 20:43:39 10° SSE 20:47:25 69° ENE 20:51:12 10° N visible
27 Apr 3.5 20:33:50 10° SSE 20:37:29 48° ENE 20:41:09 10° N visible
28 Apr 3.9 20:24:07 10° SE 20:27:34 34° ENE 20:31:01 10° N visible
29 Apr 4.4 20:14:32 10° SE 20:17:39 25° ENE 20:20:48 10° NNE visible
29 Apr 6.1 21:50:10 10° SW 21:51:57 13° W 21:53:45 10° WNW visible
